Location: Bruchhof
(51.8738°N, 9.9256°E)
Time: 08:08:48
(UTC+00:00)

Cosmos 1603 - Pass Details

Date: 15 June 2024
Orbit: 829 x 860 km, 71.0° (Epoch: 23 July)

Event Time Altitude Azimuth Distance (km) Brightness Sun altitude
Rises 01:34:40 0° 328° (NNW) 3,448 7.3 -9.3°
Reaches altitude 10° 01:37:09 10° 327° (NNW) 2,508 6.5 -9.1°
Maximum altitude 01:42:54 75° 244° (WSW) 894 3.7 -8.6°
Drops below altitude 10° 01:48:36 10° 160° (SSE) 2,483 5.8 -8.1°
Sets 01:51:02 0° 158° (SSE) 3,412 6.5 -7.9°
